Location: *
(43.0833°N, 13.0500°E)
Time: 22:29:13
(UTC+00:00)

Cosmos 1869 - Pass Details

Date: 15 November 2019
Orbit: 529 x 554 km, 82.5° (Epoch: 06 December)

Event Time Altitude Azimuth Distance (km) Brightness Sun altitude
Rises 16:43:07 0° 184° (S) 2,687 7.1 -10.9°
Reaches altitude 10° 16:45:16 10° 183° (S) 1,796 6.2 -11.3°
Maximum altitude 16:49:12 80° 97° (E) 551 3.2 -12.0°
Drops below altitude 10° 16:53:09 10° 11° (N) 1,797 5.7 -12.7°
Sets 16:55:18 0° 10° (N) 2,690 6.6 -13.1°
